Regional Weather Roundup
Issued by NWS

Home | Current Version | Previous Version | Text Only | Print | Product List | Glossary Off
Versions: 1 2 3 4 5 6 7 8 9 10 11 12 13 14 15 16 17 18 19 20 21 22 23 24 25 26 27 28 29 30 31 32 33 34 35 36 37 38 39 40 41 42 43 44 45 46 47 48 49 50

000
ASUS44 KMEG 301300
RWRTN
TENNESSEE HOURLY STATE WEATHER ROUNDUP
NATIONAL WEATHER SERVICE MEMPHIS TN
700 AM CST FRI JAN 30 2015

TNZ002-004-019-021-049-052-054-088>092-301400-
WEST TENNESSEE

CITY           SKY/WX    TMP DP  RH WIND       PRES   REMARKS
MEMPHIS INTL   PTCLDY    36  27  69 N9        30.47R WCI  29
NWS MEMPHIS      N/A     33 N/A N/A MISG        N/A
JACKSON        CLOUDY    36  25  64 NE8       30.46R WCI  30
DYERSBURG      MOCLDY    34  16  47 N6        30.51R WCI  29
UNION CITY     CLOUDY    30  25  80 N10       30.47R WCI  21
PARIS          CLOUDY    32  23  69 N12       30.46R WCI  23
LEXINGTON      CLOUDY    34  23  64 N9        30.43R WCI  26
SAVANNAH       CLOUDY    36  25  64 N7        30.45R WCI  30
$$

TNZ008-025-027-028-033-062-065-066-301400-
NORTH MIDDLE TENNESSEE

CITY           SKY/WX    TMP DP  RH WIND       PRES   REMARKS
NASHVILLE      CLOUDY    35  23  61 N17G29    30.44R WCI  25
CLARKSVILLE    CLOUDY    34  25  69 N9        30.46R WCI  27
COOKEVILLE     CLOUDY    34  27  75 VRB6      30.36R WCI  29
CROSSVILLE     CLOUDY    32  24  72 N12G23    30.32R WCI  23
$$

TNZ061-075-076-078-094-096-097-301400-
SOUTH MIDDLE TENNESSEE

CITY           SKY/WX    TMP DP  RH WIND       PRES   REMARKS
FAYETTEVILLE   CLOUDY    34  23  64 MISG      30.38R
TULLAHOMA      CLOUDY    34  25  69 N13       30.38R WCI  25
WINCHESTER     CLOUDY    34  27  75 N7        30.37S WCI  28
COLUMBIA       CLOUDY    36  27  69 N6        30.41R WCI  31
SHELBYVILLE    CLOUDY    36  27  69 N10       30.41R WCI  28
$$

TNZ017-018-042-046-047-301400-
NORTHEAST TENNESSEE

CITY           SKY/WX    TMP DP  RH WIND       PRES   REMARKS
TRI CITIES     CLOUDY    33  23  66 W10G22    30.24R WCI  25
ELIZABETHTON   CLOUDY    30  21  69 W13       30.21R WCI  20
$$

TNZ012-013-036-069-073-074-301400-
CENTRAL EAST TENNESSEE

CITY           SKY/WX    TMP DP  RH WIND       PRES   REMARKS
KNOXVILLE      CLOUDY    36  24  62 N9        30.33R WCI  29
OAK RIDGE      CLOUDY    38  23  55 NW7       30.35R WCI  33
GATLINBURG     CLOUDY    34  25  69 NW7       30.32R WCI  28
$$

TNZ083-085-099-301400-
SOUTHEAST TENNESSEE

CITY           SKY/WX    TMP DP  RH WIND       PRES   REMARKS
CHATTANOOGA    CLOUDY    39  24  55 N14       30.36R WCI  31
$$

SKY/WX REPORTED AS FAIR MEANS FEW OR NO CLOUDS BELOW
12 THOUSAND FEET.



USA.gov is the U.S. government's official web portal to all federal, state and local government web resources and services.